GFSFLT2_con_3kmhel_105.txt.gz
Helicity
20 -3 76 106 106 102 98 99 94 94 107 101 111 121 133 136 139 117 103 106 87 74 85 78 76 74 77 73 56 28 -2 6
24 10 67 102 107 119 114 100 86 97 103 101 106 115 116 114 124 121 101 107 83 83 91 84 81 75 75 76 57 19 8 -38
56 59 91 119 111 116 127 112 100 103 100 104 106 89 92 99 88 135 110 104 102 73 101 97 73 86 82 76 59 35 28 58
28 63 82 132 155 130 96 97 87 90 94 98 84 74 83 69 85 119 114 113 105 102 94 94 89 66 88 89 68 30 31 80
42 44 58 79 114 172 148 107 89 95 92 99 86 86 77 74 70 90 88 90 89 113 110 91 80 59 75 81 71 31 89 74
57 83 68 52 70 60 65 111 99 99 92 100 92 93 97 96 70 108 95 107 77 87 116 103 79 73 84 76 60 59 81 67
151 107 77 81 81 71 59 56 71 84 139 130 99 88 103 90 82 66 110 90 112 75 106 125 98 89 88 81 72 89 49 129
134 145 178 89 92 96 92 77 61 62 82 114 137 146 147 117 108 93 51 124 110 103 58 135 121 107 100 88 94 89 89 124
115 105 134 162 93 75 86 97 86 74 77 105 124 155 124 120 131 170 91 125 138 122 117 98 111 124 124 104 93 95 115 116
129 143 130 128 144 146 80 83 99 97 102 94 68 88 126 151 148 171 135 109 191 171 112 111 114 137 150 129 98 109 114 114
99 113 115 150 145 145 159 103 107 110 111 135 99 82 105 159 193 222 168 142 203 227 158 144 145 140 145 129 115 111 118 93
82 91 83 82 103 135 142 157 130 141 129 142 150 124 117 165 189 224 237 213 227 235 205 155 161 112 144 194 143 118 137 129
91 100 116 112 106 94 119 149 158 145 144 164 176 152 140 176 194 205 239 257 200 229 194 158 188 172 210 174 166 125 122 119
71 77 88 113 160 174 209 218 251 204 149 156 167 193 194 211 189 218 190 266 190 233 238 213 204 207 223 268 169 159 192 157
49 60 75 87 85 120 165 193 164 203 254 196 155 146 193 253 282 218 255 281 275 306 229 201 210 218 206 231 204 180 204 201
48 35 49 60 94 118 176 220 271 205 188 188 141 138 153 214 280 233 258 282 283 298 236 189 149 221 207 148 134 182 137 151
34 19 27 52 88 129 145 137 161 148 197 201 154 118 153 178 222 292 334 267 289 240 172 133 145 164 215 234 132 192 165 155
16 16 22 51 80 96 93 90 124 117 146 232 195 164 203 191 220 276 308 318 282 250 262 87 146 155 150 185 190 222 218 173
26 18 24 53 68 63 59 68 72 60 63 160 166 160 181 218 256 276 301 240 273 272 183 87 103 169 172 172 179 154 164 126
23 29 37 59 67 63 80 76 68 45 22 82 148 141 99 191 229 251 180 224 269 247 341 233 190 187 156 153 167 151 159 141

GFSFLT2_con_3kmhel_108.txt.gz
Helicity
31 34 71 92 100 89 101 92 76 75 78 83 97 100 98 91 95 95 94 74 71 72 83 71 51 47 49 47 37 18 -8 -28
82 -1 39 82 122 110 113 109 94 87 77 82 96 94 91 83 86 89 84 82 78 76 79 92 86 56 47 45 42 19 -2 -40
44 117 13 78 113 119 130 119 116 111 96 90 115 110 102 87 79 86 78 76 72 74 84 82 88 98 60 49 57 42 28 8
7 83 103 54 106 120 133 133 131 125 112 117 114 102 106 88 93 93 103 93 74 81 88 95 104 94 116 91 76 49 30 26
40 1 90 93 99 167 144 159 145 131 112 122 121 121 99 104 119 121 127 110 88 87 96 113 117 86 102 121 105 60 39 60
69 42 30 48 98 156 153 98 113 124 125 124 127 133 130 127 113 171 145 144 126 104 110 111 108 107 67 120 97 87 62 93
191 149 62 54 69 104 98 98 120 98 101 98 117 151 133 123 129 141 164 115 142 113 115 117 103 106 100 113 98 92 64 109
192 205 198 226 89 97 102 115 104 124 126 130 103 117 125 120 123 141 168 171 173 119 99 126 120 108 105 124 121 93 107 136
226 114 136 174 197 194 101 107 114 114 122 118 127 124 209 182 174 178 132 198 170 150 99 163 120 136 141 130 127 127 122 138
180 163 150 163 186 161 140 180 113 121 124 117 167 148 139 211 187 200 230 237 239 231 171 196 175 172 151 133 126 126 136 148
136 104 123 139 150 148 144 116 151 140 121 125 185 194 186 159 168 214 203 223 313 234 215 236 219 203 161 150 129 132 129 149
140 124 105 90 88 102 124 138 127 139 142 141 139 222 185 143 161 212 244 250 263 314 250 272 245 206 192 152 150 120 132 145
135 112 106 93 67 70 87 116 173 186 161 143 173 210 207 165 191 187 289 294 284 335 311 319 310 266 241 235 225 221 174 169
97 96 94 86 84 85 61 36 68 138 212 274 211 170 213 212 177 241 297 310 301 309 328 310 307 290 263 296 191 168 156 169
77 78 73 67 77 67 70 88 98 88 117 95 183 199 247 284 224 245 297 255 171 183 230 259 315 312 272 293 229 194 187 179
73 72 66 56 56 58 81 66 67 101 119 210 232 210 284 296 300 278 318 294 317 224 137 270 291 306 260 186 217 182 161 151
44 49 53 47 41 40 43 62 84 91 103 86 169 278 235 287 328 277 287 318 314 381 331 186 256 317 214 182 138 144 138 207
29 30 32 35 35 38 43 49 53 62 63 52 24 104 226 233 324 276 264 295 319 317 354 182 309 251 290 212 168 187 183 248
2 9 18 12 17 22 43 58 56 53 24 47 -4 -10 133 102 213 260 296 335 341 290 286 181 216 204 211 243 267 176 163 200
-20 -13 6 8 16 27 57 63 75 68 58 63 31 -43 105 243 76 164 229 288 323 349 201 245 325 232 204 112 250 184 139 180

GFSFLT2_con_3kmhel_114.txt.gz
Helicity
67 60 52 79 111 113 105 107 105 103 94 84 71 77 77 78 71 67 61 68 62 68 64 61 54 45 38 35 36 53 77 52
61 72 52 76 104 122 119 113 108 101 102 89 78 73 77 80 76 73 72 75 76 66 72 71 67 65 56 44 38 65 81 56
122 64 42 52 103 127 134 127 125 120 115 101 98 99 88 85 84 67 67 72 78 81 85 83 74 67 72 72 63 61 79 63
139 125 51 51 85 132 160 171 171 162 148 135 133 114 108 99 88 69 67 71 80 90 98 94 97 85 71 90 78 65 73 69
159 133 93 54 43 112 155 172 182 181 166 149 146 129 125 116 110 95 94 70 93 95 113 126 130 113 99 103 89 79 82 78
238 180 145 79 71 80 109 153 157 161 168 163 159 152 145 133 139 128 132 127 125 130 136 145 148 134 125 119 116 91 79 90
310 265 220 131 96 84 114 135 134 134 138 140 165 157 147 159 147 158 154 163 161 156 154 148 146 143 131 123 112 116 93 97
448 426 343 321 250 144 125 134 132 138 146 136 143 157 157 168 169 174 178 182 176 175 173 160 156 156 140 154 138 115 122 128
531 439 391 360 320 267 194 126 112 153 150 133 142 140 155 165 184 205 191 198 188 183 166 168 170 174 146 158 162 134 127 138
585 396 353 303 288 240 216 172 133 120 134 93 108 135 143 153 186 170 171 217 216 193 196 213 176 183 166 162 171 170 153 167
455 353 308 247 183 145 194 195 131 115 110 128 132 122 103 134 138 172 196 126 226 229 215 235 241 213 190 189 195 193 193 198
408 278 223 170 162 164 100 89 131 86 76 97 121 148 170 143 123 148 189 231 223 256 238 271 284 236 249 241 229 208 192 197
422 324 201 121 103 142 99 51 74 91 83 71 84 88 140 175 147 122 145 170 191 235 265 297 337 358 397 339 329 257 215 175
370 283 218 147 69 53 44 88 39 56 56 90 81 65 96 134 151 172 141 149 171 226 219 242 247 336 304 261 347 326 269 189
216 175 191 199 119 37 24 11 11 7 43 59 99 107 86 85 97 113 151 189 166 175 232 202 209 380 411 276 645 297 232 196
243 200 215 142 88 45 29 2 11 26 28 35 61 104 110 85 78 98 140 174 166 162 227 244 343 389 557 488 94 206 105 108
222 186 220 126 71 34 4 31 26 27 22 15 28 51 80 114 106 94 138 187 204 157 253 340 367 449 518 426 305 262 333 349
173 106 135 87 20 5 4 9 26 31 21 33 17 28 52 87 130 143 158 188 261 192 240 264 335 385 390 317 303 385 350 490
140 168 128 65 -2 -12 10 23 9 10 19 4 47 25 44 95 137 157 155 143 186 246 296 320 291 311 321 321 311 342 335 306
113 92 63 54 33 21 18 24 1 7 21 11 14 14 24 63 64 107 128 140 108 167 233 311 301 243 288 490 277 247 292 355

GFSFLT2_con_3kmhel_117.txt.gz
Helicity
70 49 49 77 101 115 126 99 84 82 91 96 95 95 93 96 97 103 96 92 88 85 83 77 71 68 71 64 65 55 51 44
97 87 68 70 90 104 114 119 98 89 95 100 104 93 87 82 85 90 100 90 94 89 86 83 84 77 77 76 76 67 56 52
83 90 72 66 63 89 107 101 107 100 98 103 117 124 109 94 94 91 98 95 98 97 94 87 85 83 82 100 105 80 69 60
88 114 116 115 94 77 109 122 129 137 130 134 143 127 132 123 96 79 82 88 94 95 94 92 104 95 93 108 118 98 77 62
147 168 168 149 127 104 108 147 157 147 138 124 130 144 148 134 125 111 110 96 118 104 111 122 126 110 103 114 115 119 91 79
215 229 240 219 173 103 87 102 147 139 141 135 145 148 144 132 141 134 132 153 147 152 147 139 136 127 124 116 119 132 107 82
390 376 386 336 266 152 80 74 128 146 114 109 109 120 120 125 136 140 143 176 170 173 168 168 156 149 141 134 111 115 120 106
568 609 546 480 396 311 205 171 157 143 130 119 117 114 115 123 122 122 130 176 179 193 188 183 171 169 144 148 125 115 125 123
681 653 531 461 391 339 263 205 180 179 166 213 143 89 90 113 124 134 143 178 189 183 192 198 168 165 147 161 161 144 134 133
747 651 572 490 409 319 256 223 195 178 142 140 148 149 223 139 144 150 136 184 192 180 178 180 157 144 129 158 162 161 155 153
781 697 569 445 356 254 224 217 212 166 135 114 110 92 103 134 191 140 145 180 191 198 123 176 165 156 150 154 176 175 161 159
759 675 558 426 315 224 207 216 230 205 181 127 104 80 75 59 81 122 172 144 158 204 141 156 193 90 119 164 194 173 174 174
731 603 509 399 331 232 151 107 163 189 186 166 129 87 98 78 48 61 88 125 124 161 177 157 189 191 267 252 110 159 156 175
587 492 390 308 200 98 100 113 82 78 136 163 124 107 93 92 82 70 89 111 151 127 143 173 189 243 203 236 200 270 287 251
438 415 348 296 208 146 85 96 83 53 80 90 127 135 107 70 77 69 68 100 127 160 161 154 171 209 226 239 290 328 286 400
364 381 348 317 230 128 122 40 37 49 70 60 65 72 94 111 89 76 64 67 117 133 155 171 175 217 291 327 402 330 347 385
294 348 345 284 253 160 71 72 40 14 19 44 49 48 82 93 97 122 100 87 94 134 163 178 195 211 328 357 417 452 424 429
412 310 300 235 205 170 147 94 70 35 28 9 1 16 40 82 102 98 111 124 105 111 143 192 198 244 299 328 410 465 472 441
155 237 157 139 152 145 128 120 91 62 36 5 30 2 3 44 84 101 105 100 113 125 131 145 216 263 306 301 326 385 385 333
105 111 101 143 130 90 72 71 64 49 50 34 14 6 12 25 38 61 81 91 90 104 107 106 140 214 255 300 328 330 316 331

GFSFLT2_con_3kmhel_123.txt.gz
Helicity
-6 1 12 28 45 81 130 166 149 130 111 100 99 99 101 99 92 86 85 88 94 104 107 105 89 70 57 79 77 60 35 38
23 22 27 40 44 63 89 96 126 150 143 122 106 101 97 100 98 89 82 84 86 101 106 101 90 71 61 73 82 66 35 42
58 60 60 62 54 54 76 92 108 137 146 147 148 124 106 95 97 106 90 86 83 94 111 108 101 80 63 56 81 51 46 38
63 67 69 86 88 74 74 72 77 109 136 153 152 142 142 129 121 106 99 91 87 91 106 112 119 95 79 66 53 50 47 36
78 100 96 109 120 114 120 112 122 134 113 128 161 164 148 152 152 143 128 118 109 105 110 104 108 113 99 87 62 50 52 44
93 83 132 131 152 164 143 172 153 139 128 121 120 163 169 164 156 146 146 144 128 122 119 118 115 109 100 84 74 61 53 49
162 135 137 164 172 165 169 169 140 120 119 120 151 137 143 156 147 152 137 120 129 134 112 114 131 136 126 97 76 67 53 63
200 263 323 229 182 219 200 205 194 182 174 152 99 142 138 148 168 170 169 166 155 117 107 112 129 155 157 138 95 79 62 57
250 285 298 341 341 300 262 278 244 243 227 218 196 190 209 175 133 138 162 150 150 146 133 135 129 147 146 171 147 113 96 73
361 344 384 394 403 351 313 279 272 261 256 224 198 178 168 166 167 170 189 198 142 142 159 161 155 157 163 159 175 153 101 104
387 419 405 385 354 334 305 279 259 262 235 202 187 173 163 163 167 158 157 173 188 206 152 171 163 168 176 178 169 165 119 96
352 365 404 336 290 274 254 232 233 245 218 205 208 177 175 158 160 151 130 131 135 144 155 163 168 182 166 150 208 191 147 92
371 390 356 317 311 283 262 258 241 222 213 214 196 180 173 177 174 167 162 136 138 146 142 151 192 244 273 260 159 14 141 259
325 325 368 317 241 260 228 267 207 165 179 177 190 185 178 173 171 158 150 149 145 144 156 178 172 192 256 231 264 273 135 178
248 269 299 335 325 215 204 255 283 198 171 164 177 180 173 188 158 145 128 107 120 148 165 171 185 206 162 296 300 298 198 161
203 249 259 321 344 338 248 121 249 185 159 152 140 145 161 207 185 160 131 108 97 107 138 165 202 193 238 194 208 328 282 228
263 209 218 209 241 252 255 374 125 106 108 133 104 107 158 188 188 175 159 129 116 117 125 129 146 178 194 257 215 224 233 266
259 215 146 192 261 243 236 153 24 4 89 64 80 138 143 159 191 174 141 137 132 125 120 109 117 125 135 161 189 215 224 250
205 211 186 189 188 230 260 169 96 -47 -19 -26 82 98 86 102 140 150 132 132 127 119 122 107 98 92 95 111 122 148 168 195
67 92 160 213 202 117 103 57 54 -66 -13 18 56 38 49 85 106 126 137 124 123 114 105 96 99 90 82 90 102 100 128 145

GFSFLT2_con_3kmhel_129.txt.gz
Helicity
92 67 33 33 31 36 44 48 56 60 63 71 78 82 82 84 88 82 70 63 45 44 41 45 46 45 36 29 19 -2 -30 -24
114 70 54 41 43 53 64 77 88 93 92 90 91 93 89 90 98 90 86 74 62 59 52 53 50 49 43 39 32 11 -12 -18
77 90 65 49 40 72 63 62 59 50 44 65 96 103 106 99 106 101 108 85 82 74 70 71 61 54 57 52 54 28 20 15
139 115 112 75 51 67 57 65 58 60 60 49 58 69 83 83 102 147 152 113 102 96 86 86 92 62 74 90 62 25 21 10
252 195 218 136 88 85 82 77 78 71 71 77 92 73 66 74 84 149 139 156 133 123 113 111 95 89 57 123 42 41 36 29
195 199 220 242 222 133 70 57 67 81 81 79 85 78 64 69 74 91 94 115 130 159 155 119 113 97 58 41 84 69 59 45
215 198 208 237 282 292 295 276 202 153 158 110 74 74 62 62 63 74 93 105 123 143 149 150 121 87 72 75 92 121 76 68
166 209 207 234 259 311 312 358 379 330 298 286 288 219 147 86 77 65 67 92 107 123 129 145 153 136 116 79 92 134 152 101
84 116 178 208 243 267 255 284 296 311 280 282 280 232 186 169 155 140 105 84 63 76 83 114 135 165 152 150 133 118 111 118
90 95 113 124 154 190 196 300 307 296 277 262 276 249 212 154 113 79 60 40 80 76 93 67 87 121 174 177 193 155 143 143
135 121 133 135 121 119 158 162 183 263 238 261 298 239 225 181 134 71 49 17 7 22 45 74 101 75 91 92 138 174 153 170
129 127 140 141 125 80 89 147 147 133 171 235 274 226 225 209 182 155 81 66 71 90 85 65 75 87 101 95 104 117 160 166
131 137 136 116 115 141 121 113 120 137 131 128 169 179 220 266 250 224 176 137 130 118 96 82 79 81 88 94 92 99 118 164
153 169 164 158 139 129 106 82 70 67 79 116 139 132 125 146 157 133 110 86 109 125 124 83 87 93 92 92 124 75 110 169
132 139 155 158 177 126 132 92 79 93 94 58 115 157 110 85 91 126 117 93 88 101 103 104 72 88 152 135 108 106 73 108
110 117 126 114 106 123 148 137 138 101 128 131 128 95 142 146 77 77 111 110 81 81 97 84 80 61 70 123 175 87 89 117
55 41 53 67 81 105 106 122 104 93 108 145 108 130 75 84 113 76 70 85 99 87 89 96 90 68 62 65 102 146 147 127
48 48 52 46 48 56 70 78 78 92 105 75 96 88 96 67 47 59 60 96 114 80 82 78 82 87 88 85 75 76 95 156
40 39 55 60 59 64 68 74 72 76 84 109 90 80 58 76 62 37 29 32 76 47 75 89 90 99 112 90 100 97 83 74
56 52 55 71 79 79 83 90 77 71 60 51 61 62 75 83 138 91 127 2 -4 58 86 109 143 140 136 136 100 94 83 77

GFSFLT2_con_3kmhel_132.txt.gz
Helicity
93 44 42 46 50 47 42 41 47 58 64 73 82 93 93 90 94 82 62 52 44 42 44 47 45 38 26 21 6 -4 -22 -54
106 137 101 51 58 57 62 56 42 49 59 60 61 67 72 83 96 102 94 77 62 49 53 55 66 60 47 31 26 8 -11 -39
221 259 247 184 80 77 69 45 59 61 55 54 75 70 57 65 83 85 116 106 93 87 77 57 64 67 74 59 50 47 24 21
256 230 237 244 206 112 44 35 69 73 72 82 87 64 76 69 91 117 120 116 99 100 96 95 103 102 90 101 126 78 45 23
231 187 192 227 191 191 212 112 121 103 52 48 84 96 83 77 73 113 139 122 118 117 121 140 145 141 111 138 142 124 104 64
186 176 160 222 166 184 191 185 214 222 149 97 92 128 108 84 85 80 118 108 103 84 129 140 144 141 122 99 162 138 107 53
138 144 172 230 179 211 211 248 205 208 241 311 274 256 182 133 115 99 73 75 86 96 93 125 141 150 130 101 97 115 105 74
96 113 134 147 171 186 207 214 233 225 245 278 279 239 182 155 156 164 156 132 103 78 59 72 105 142 155 126 55 73 123 156
101 135 176 166 168 148 167 193 190 190 216 281 292 265 232 195 140 129 118 118 113 90 67 73 55 47 34 62 101 68 87 140
62 82 116 162 136 143 135 140 145 126 133 181 238 237 240 226 188 160 105 92 74 77 81 94 51 58 45 75 68 58 51 103
94 93 124 129 156 120 135 199 192 137 129 154 202 222 215 264 281 299 258 155 116 123 128 127 93 71 41 46 22 53 127 251
110 92 109 116 144 164 131 102 144 191 171 125 113 99 209 256 237 245 236 243 229 189 149 112 91 62 65 58 49 89 119 136
161 146 146 139 124 147 161 139 97 120 163 215 182 133 149 148 202 170 174 181 164 142 97 94 79 98 84 91 65 50 99 117
131 144 149 166 186 165 149 115 97 69 32 91 149 156 74 111 146 139 158 141 124 125 128 79 57 117 91 52 40 50 38 86
102 115 128 128 186 163 166 164 170 171 155 99 91 90 85 107 157 136 107 110 97 94 92 115 92 64 116 100 68 92 68 46
73 72 102 85 76 102 147 162 169 168 174 151 143 102 85 105 159 167 105 98 98 76 74 67 90 96 49 117 149 147 89 31
104 88 88 68 59 53 55 67 77 107 111 125 128 129 150 137 131 92 100 82 96 95 92 88 61 85 92 73 73 106 131 124
94 85 87 70 57 63 64 73 73 66 70 89 87 101 59 74 94 116 79 61 41 44 62 81 77 95 87 85 104 90 106 123
96 89 91 77 56 53 61 68 75 83 72 60 68 65 66 77 76 95 94 107 77 45 31 60 116 100 81 89 125 151 149 126
111 101 91 70 56 55 54 67 63 67 74 71 68 68 82 77 61 41 53 59 43 81 91 118 64 87 106 106 111 159 197 178

GFSFLT2_con_3kmhel_135.txt.gz
Helicity
229 221 184 120 69 70 71 60 59 51 48 50 51 61 59 58 65 68 73 75 66 58 49 51 56 41 27 21 19 1 -19 -20
264 252 232 242 196 87 63 56 57 54 48 46 49 49 57 61 62 62 63 64 72 75 68 57 59 60 55 41 17 5 -6 -14
284 299 261 260 229 241 119 68 40 51 70 73 75 90 74 60 69 69 65 69 71 69 70 72 81 71 67 65 58 52 9 -18
168 165 205 210 191 212 232 193 126 94 75 72 89 94 82 75 81 88 88 91 88 84 67 56 68 101 110 87 107 89 61 29
88 70 136 179 150 130 155 201 230 199 168 108 102 107 89 87 89 100 102 99 114 104 100 102 110 136 124 127 123 127 114 70
134 123 161 193 127 134 143 144 209 261 305 313 276 203 142 165 157 116 104 97 99 93 115 120 131 153 143 133 143 144 145 126
141 128 184 206 179 180 187 178 144 188 271 310 297 216 188 181 176 197 144 120 122 78 61 59 60 85 124 138 146 168 173 195
102 116 149 145 139 149 156 175 160 157 157 210 270 272 221 207 211 204 168 115 105 111 109 70 41 49 82 73 31 14 40 86
111 131 141 170 146 119 137 149 143 172 182 171 160 226 320 286 233 287 242 195 135 116 117 109 99 118 89 61 65 61 67 77
66 119 151 160 182 120 107 138 135 132 150 161 209 237 276 298 298 250 218 171 195 226 199 173 135 114 101 95 83 70 38 55
41 75 120 137 153 169 133 114 123 158 147 155 126 174 215 220 211 205 201 168 122 130 140 133 117 114 108 97 88 81 67 92
82 78 132 149 149 160 142 114 95 87 114 137 148 160 203 220 158 222 145 153 134 146 144 133 110 88 83 79 73 70 61 80
113 99 121 154 179 176 177 171 87 72 78 80 98 109 162 196 184 172 159 115 139 130 138 178 136 137 37 64 74 73 66 86
92 100 92 127 129 145 132 178 172 175 116 164 99 81 134 161 219 231 219 186 219 154 145 108 94 146 83 60 78 58 154 142
87 80 76 75 81 102 141 154 158 154 142 166 147 150 134 153 159 168 184 201 163 147 141 146 138 91 145 80 114 135 83 74
95 75 75 78 78 103 124 97 98 65 67 91 122 114 82 82 119 134 125 119 165 169 126 113 98 135 130 203 168 141 138 78
110 88 93 86 83 85 91 101 91 72 75 89 119 110 94 89 110 140 131 118 108 110 135 143 116 109 113 119 129 146 98 120
120 99 98 78 73 84 97 104 95 75 84 79 67 60 56 74 92 97 112 133 142 125 104 93 92 81 79 109 134 138 172 140
128 119 109 101 87 74 77 84 84 73 74 71 68 59 53 65 76 87 82 99 107 120 122 90 92 95 88 82 75 114 139 142
191 129 105 96 78 56 53 60 55 58 70 67 61 64 62 71 84 76 84 83 88 104 89 59 74 113 163 136 118 121 97 88

GFSFLT2_con_3kmhel_141.txt.gz
Helicity
278 265 243 221 232 245 175 145 122 112 92 74 48 29 27 26 29 29 31 34 38 42 48 56 55 51 51 45 43 65 72 66
276 256 250 231 210 249 218 189 172 146 104 95 87 66 52 37 27 28 25 24 28 34 41 50 56 56 57 64 55 52 80 91
210 213 216 214 204 220 223 213 188 177 139 116 90 88 99 87 68 53 50 40 30 33 35 33 49 59 54 71 75 85 74 91
167 148 156 157 158 200 223 205 159 156 151 151 136 121 115 117 122 115 90 88 80 72 60 59 66 90 95 67 90 82 85 87
148 133 138 148 165 176 191 205 199 193 227 217 205 213 225 211 165 143 149 166 131 115 97 94 80 92 85 86 102 103 105 89
145 143 147 168 161 197 215 225 225 232 243 267 260 257 276 259 231 223 191 176 163 151 140 139 137 121 98 92 86 104 120 105
142 164 164 133 138 127 164 185 197 223 248 259 250 264 270 265 266 242 242 224 193 135 106 109 131 137 131 109 99 86 106 119
126 174 158 138 137 140 134 143 162 178 198 232 256 241 225 230 220 213 210 182 177 186 176 142 138 137 131 129 115 97 90 90
156 162 183 168 134 120 117 119 127 139 143 175 188 205 209 203 221 208 180 188 172 133 150 136 140 146 145 123 106 105 87 82
164 151 154 150 131 112 108 117 124 127 123 129 160 172 181 170 175 193 181 164 175 167 135 140 132 119 120 138 121 105 92 88
174 158 165 153 147 121 123 127 128 127 131 136 154 166 175 146 157 175 176 159 175 176 157 138 121 122 171 150 122 122 115 105
164 154 161 148 146 144 125 124 118 107 99 101 124 130 154 147 155 177 179 177 189 188 185 171 118 118 117 110 123 134 125 112
157 166 166 163 155 149 123 102 73 75 55 58 54 65 83 97 102 122 139 150 170 186 165 203 166 195 96 115 106 120 179 188
162 149 169 173 132 104 74 64 74 45 37 36 36 45 60 73 92 101 114 113 143 169 183 152 127 180 110 73 116 156 209 222
158 172 185 162 128 97 100 83 54 42 38 30 36 44 69 87 102 106 112 110 121 149 177 194 161 157 199 149 166 155 149 188
186 197 178 152 128 136 131 79 49 33 31 38 52 61 77 80 78 94 110 121 136 144 152 166 172 179 206 256 212 175 125 160
187 201 190 157 144 118 99 84 46 30 44 60 66 72 80 104 113 123 124 119 142 163 171 167 158 158 166 160 197 220 167 150
211 218 215 182 151 116 90 76 59 54 56 57 49 53 73 99 87 92 109 130 144 146 166 163 170 165 158 167 175 184 247 242
233 222 212 182 156 126 100 81 72 58 59 56 58 61 57 80 69 69 65 84 105 124 149 143 133 135 145 144 153 186 176 153
224 223 204 178 155 135 110 92 66 60 71 69 65 62 67 70 74 75 75 82 86 107 109 94 96 93 136 133 167 203 184 170